Retour au catalogue

STARLINK-36151

ActifCommunicationsVLEO
NORAD 67123·PAYLOAD·🇺🇸 United States

Lancé Dec 15, 2025 depuis Cape Canaveral Space Force Station

Loading…

Prochains Passages (prochaines 24 heures)

TLE

FraisSource: CelesTrak SupGP

Époque: Sep 15, 2026, 02:44 UTC

1 67123C 25299X   26258.11437500 -.00017192  00000+0 -62281-3 0  2581
2 67123  42.9998 179.0449 0001289 272.0337 257.6886 15.27580264    13

Suivez STARLINK-36151 en temps réel avec AllMySat

Download on the App Store